Location: downtown San Diego
(32.7310°N, 117.1990°W)
Time: 23:50:53
(UTC-07:00)

NOSS 3-4 (C) - Pass Details

Date: 19 May 2017
Orbit: 966 x 1246 km, 63.4° (Epoch: 20 June)

Event Time Altitude Azimuth Distance (km) Brightness Sun altitude
Rises 19:59:29 0° 197° (SSW) 3,651 6.4 -3.8°
Reaches altitude 10° 20:02:04 10° 194° (SSW) 2,697 5.7 -4.3°
Maximum altitude 20:08:12 60° 116° (ESE) 1,102 3.5 -5.4°
Drops below altitude 10° 20:14:28 10° 38° (NE) 2,750 5.8 -6.6°
Sets 20:17:07 0° 35° (NE) 3,728 6.5 -7.1°
